Lexington Weather

Lexington, Massachusetts, USA

57°F
12/4/2020 1:13pm 
  • Lexington Conditions: Partly cloudy
  • Temperature: 56.5°F / 13.6°CWarmer 2.5°F than last hour.
  • Dew Point: 36.5°FIncreased 1.8°Fsince last hour.
  • Relative Humidity: 47%Decreased 1.0% since last hour.
  • Wind: Wind from SSW SSW 9 mph, 10-min avg: 4 mph, gust: 11 mph
  • Barometer: 29.90 inFalling 0.02  inHg/hr Falling Slowly
  • Visibility: 10 miles
  • Rain Today: 0.00 in
  •   
Southeast Middlesex County - Winter Storm Watch
 - SEE ALL NEARBY ALERTS -

Regional Weather Roundup
for Boston / Norton, MA

        
000
ASUS41 KBOX 280104
RWRBOX

REGIONAL WEATHER ROUNDUP
NATIONAL WEATHER SERVICE BOSTON/NORTON MA
800 PM EST FRI NOV 27 2020

NOTE:  "FAIR" INDICATES FEW OR NO CLOUDS BELOW 12,000 FEET WITH NO 
SIGNIFICANT WEATHER AND/OR OBSTRUCTIONS TO VISIBILITY.

MAZALL-280200-
EASTERN MASSACHUSETTS
  
CITY           SKY/WX    TMP DP  RH WIND       PRES   REMARKS
BOSTON         CLOUDY    52  41  66 NW6       29.97F                  
BEVERLY        CLOUDY    50  46  86 NW3       29.96F                  
LAWRENCE       CLOUDY    49  42  77 CALM      29.98F                  
BEDFORD        CLOUDY    47  45  93 CALM      29.96F                  
BLUE HILL        N/A     49  45  86 NW7       29.95F                  
NORWOOD        CLOUDY    50  46  86 CALM      29.97S                  
MARSHFIELD     CLOUDY    52  52 100 CALM      29.96S                  
PLYMOUTH       CLOUDY    50  49  96 CALM      29.96F                  
TAUNTON        LGT RAIN  51  49  92 CALM      29.96F                  
NEW BEDFORD    CLOUDY    52  50  93 CALM      29.96F                  
$$

MAZALL-280200-
CAPE COD AND THE ISLANDS
  
CITY           SKY/WX    TMP DP  RH WIND       PRES   REMARKS
FALMOUTH       CLOUDY    52  52 100 CALM      29.97S                  
HYANNIS        CLOUDY    51  50  96 CALM      29.95F                  
CHATHAM        CLOUDY    51  49  92 CALM      29.97F                  
NANTUCKET      FOG       49  49 100 CALM      29.96F VSB 1/4          
MARTHAS VNYRD  MOCLDY    47  46  97 NW3       29.96F                  
$$
 
MAZALL-280200-
CENTRAL AND WESTERN MASSACHUSETTS
  
CITY           SKY/WX    TMP DP  RH WIND       PRES   REMARKS
WORCESTER      CLOUDY    48  38  68 CALM      29.96F                  
FITCHBURG      CLOUDY    47  44  90 CALM      29.97F                  
ORANGE         CLOUDY    45  44  97 NW3       29.98S FOG              
SPRINGFIELD    CLOUDY    47  46  96 CALM      29.97R                  
WESTFIELD      CLOUDY    46  44  93 CALM      29.98R                  
NORTH ADAMS    CLOUDY    47  39  74 NW5       29.99R                  
PITTSFIELD     CLOUDY    44  37  76 NW3       29.97R                  
$$
 
RIZALL-280200-
RHODE ISLAND
  
CITY           SKY/WX    TMP DP  RH WIND       PRES   REMARKS
PROVIDENCE     CLOUDY    52  47  83 CALM      29.97S                  
NEWPORT        CLOUDY    52  47  83 N6        29.95F                  
BLOCK ISLAND   CLOUDY    51  49  92 CALM      29.98S                  
SMITHFIELD     CLOUDY    48  48 100 CALM      29.97S                  
WESTERLY       MOCLDY    50  47  89 CALM      29.97S                  
$$
 
CTZALL-280200-
CONNECTICUT
  
CITY           SKY/WX    TMP DP  RH WIND       PRES   REMARKS
BRADLEY INTL   CLOUDY    50  41  71 CALM      29.98S                  
HARTFORD       CLOUDY    50  43  77 CALM      29.98S                  
BRIDGEPORT     CLOUDY    55  46  71 NW3       29.98R                  
DANBURY        CLOUDY    49  46  90 SW3       30.00R                  
GROTON         CLOUDY    52  50  93 CALM      29.97S                  
NEW HAVEN      CLOUDY    54  46  74 N5        29.98R                  
CHESTER        CLOUDY    52  46  82 NW6       29.99R                  
MERIDEN        CLOUDY    52  42  69 CALM      29.98S                  
WILLIMANTIC    CLOUDY    50  46  86 NE3       29.98S                  
OXFORD         CLOUDY    49  44  83 CALM      29.99R                  
$$

MEZ002-015-021-024-NHZ003-005-008-011-012-014-VTZ005-008-280200-
NORTHERN NEW ENGLAND
  
CITY           SKY/WX    TMP DP  RH WIND       PRES   REMARKS
PORTLAND ME    CLOUDY    44  44 100 CALM      29.94F                  
BANGOR ME      CLOUDY    44  41  89 CALM      29.96S                  
CONCORD NH     CLOUDY    47  38  71 NW7       29.97S                  
MANCHESTER NH  CLOUDY    46  41  82 CALM      29.95F                  
NASHUA NH      CLOUDY    44  44 100 CALM      29.97F                  
PORTSMOUTH NH  CLOUDY    47  40  75 SW3       29.94F                  
JAFFREY NH     CLOUDY    43  40  89 CALM      29.96S                  
KEENE NH       CLOUDY    41  41 100 CALM      29.98S FOG              
BURLINGTON VT  CLOUDY    42  39  89 CALM      29.97F                  
MT. WASHINGTON NOT AVBL                                               
$$

NYZ052-076-280200-
EASTERN NEW YORK
  
CITY           SKY/WX    TMP DP  RH WIND       PRES   REMARKS
ALBANY         CLOUDY    42  40  92 SW3       30.00S                  
NEW YORK CITY  PTCLDY    57  41  55 NW9       29.99S                  
$$
 
ANZALL-280200-
MARINE OBSERVATIONS
  
STATION/POSITION TIME  TEMP    WIND        PRES    VSBY  WAVE
                       AIR SEA DIR/SP/G                  HT/PER
                 (UTC) (F)     (DEG/KT/KT) (MB)    (MI)  (FT/S)
BOSTON BUOY      0040   50 50  280/  4/  4 1015.0F
BUZZARDS BAY     0000          340/  4/  5 1015.5F
NANTUCKET SOUND  0040      51  290/  2/  4   N/A
MASS BAY-STELLWA NOT AVBL
ISLE OF SHOALS   0000   51     260/ 10/ 10 1014.5R
S OF BLOCK IS    0026      57                N/A           4/ 7
$$

......................KEY.........................
  SKY/WX - SKY CONDITION/PRESENT WEATHER
  TMP    - TEMPERATURE IN FAHRENHEIT
  DWPT   - DEWPOINT IN FAHRENHEIT
  RH     - RELATIVE HUMIDITY IN PERCENT
  WIND   - DIRECTION AND SPEED IN MPH
  PRES   - MEAN SEA LEVEL PRESSURE IN INCHES OF HG
  WCI    - WIND CHILL INDEX
  VSB    - VISIBILITY IN MILES
  HX     - HEAT INDEX
  TC     - TEMPERATURE IN CELSIUS
  VRB    - VARIABLE WIND DIRECTION
  N/A    - NOT AVAILABLE
  
      

Other recent Regional Weather Roundups

Fri Dec 4, 1:04pm

Fri Dec 4, 12:04pm

Fri Dec 4, 11:04am

Fri Dec 4, 10:05am

Fri Dec 4, 9:04am

Fri Dec 4, 8:04am

Fri Dec 4, 7:04am

Fri Dec 4, 6:04am

Fri Dec 4, 5:04am

Fri Dec 4, 4:04am

Fri Dec 4, 3:04am

Fri Dec 4, 2:04am

Fri Dec 4, 1:04am

Fri Dec 4, 12:04am

Thu Dec 3, 11:04pm

Thu Dec 3, 10:04pm

Thu Dec 3, 9:04pm

Thu Dec 3, 8:04pm

Thu Dec 3, 7:04pm

Thu Dec 3, 6:04pm

Thu Dec 3, 5:04pm

Thu Dec 3, 4:05pm

Thu Dec 3, 3:04pm

Thu Dec 3, 2:04pm

Thu Dec 3, 1:04pm

Thu Dec 3, 12:04pm

Thu Dec 3, 11:04am

Thu Dec 3, 10:04am

Thu Dec 3, 9:04am

Thu Dec 3, 8:04am

Thu Dec 3, 7:04am

Thu Dec 3, 6:04am

Thu Dec 3, 5:04am

Thu Dec 3, 4:04am

Thu Dec 3, 3:04am

Thu Dec 3, 2:04am

Thu Dec 3, 1:04am

Thu Dec 3, 12:04am

Wed Dec 2, 11:04pm

Wed Dec 2, 10:04pm

Wed Dec 2, 9:04pm

Wed Dec 2, 8:04pm

Wed Dec 2, 7:04pm

Wed Dec 2, 6:05pm

Wed Dec 2, 5:04pm

Wed Dec 2, 4:05pm

Wed Dec 2, 3:05pm

Wed Dec 2, 2:04pm

Wed Dec 2, 1:04pm

Wed Dec 2, 12:04pm

Wed Dec 2, 11:04am

Wed Dec 2, 10:04am

Wed Dec 2, 9:05am

Wed Dec 2, 8:04am

Wed Dec 2, 7:04am

Wed Dec 2, 6:04am

Wed Dec 2, 5:04am

Wed Dec 2, 4:04am

Wed Dec 2, 3:04am

Wed Dec 2, 2:04am

Wed Dec 2, 1:04am

Wed Dec 2, 12:04am

Tue Dec 1, 11:04pm

Tue Dec 1, 10:04pm

Tue Dec 1, 9:04pm

Tue Dec 1, 8:04pm

Tue Dec 1, 7:04pm

Tue Dec 1, 6:05pm

Tue Dec 1, 5:04pm

Tue Dec 1, 4:05pm

Tue Dec 1, 3:04pm

Tue Dec 1, 2:04pm

Tue Dec 1, 12:04pm

Tue Dec 1, 11:04am

Tue Dec 1, 10:04am

Tue Dec 1, 9:04am

Tue Dec 1, 8:04am

Tue Dec 1, 7:04am

Tue Dec 1, 6:04am

Tue Dec 1, 5:05am

Tue Dec 1, 4:04am

Tue Dec 1, 3:04am

Tue Dec 1, 2:04am

Tue Dec 1, 1:04am

Tue Dec 1, 12:04am

Mon Nov 30, 11:04pm

Mon Nov 30, 10:04pm

Mon Nov 30, 9:04pm

Mon Nov 30, 8:04pm

Mon Nov 30, 7:05pm

Mon Nov 30, 6:04pm

Mon Nov 30, 5:05pm

Mon Nov 30, 4:04pm

Mon Nov 30, 3:05pm

Mon Nov 30, 2:05pm

Mon Nov 30, 1:04pm

Mon Nov 30, 12:05pm

Mon Nov 30, 11:04am

Mon Nov 30, 10:04am

Mon Nov 30, 9:04am

Mon Nov 30, 8:04am

Mon Nov 30, 7:05am

Mon Nov 30, 6:04am

Mon Nov 30, 5:05am

Mon Nov 30, 4:04am

Mon Nov 30, 3:04am

Mon Nov 30, 2:04am

Mon Nov 30, 1:04am

Mon Nov 30, 12:04am

Sun Nov 29, 11:04pm

Sun Nov 29, 10:04pm

Sun Nov 29, 9:04pm

Sun Nov 29, 8:04pm

Sun Nov 29, 7:04pm

Sun Nov 29, 6:04pm

Sun Nov 29, 5:04pm

Sun Nov 29, 4:05pm

Sun Nov 29, 3:04pm

Sun Nov 29, 2:04pm

Sun Nov 29, 1:04pm

Sun Nov 29, 12:04pm

Sun Nov 29, 11:04am

Sun Nov 29, 10:04am

Sun Nov 29, 9:04am

Sun Nov 29, 8:05am

Sun Nov 29, 7:04am

Sun Nov 29, 6:04am

Sun Nov 29, 5:04am

Sun Nov 29, 4:04am

Sun Nov 29, 3:04am

Sun Nov 29, 2:05am

Sun Nov 29, 1:04am

Sun Nov 29, 12:04am

Sat Nov 28, 11:04pm

Sat Nov 28, 10:04pm

Sat Nov 28, 9:04pm

Sat Nov 28, 8:04pm

Sat Nov 28, 7:04pm

Sat Nov 28, 6:04pm

Sat Nov 28, 5:04pm

Sat Nov 28, 4:04pm

Sat Nov 28, 3:04pm

Sat Nov 28, 2:04pm

Sat Nov 28, 1:04pm

Sat Nov 28, 12:04pm

Sat Nov 28, 11:04am

Sat Nov 28, 10:04am

Sat Nov 28, 9:04am

Sat Nov 28, 8:04am

Sat Nov 28, 7:04am

Sat Nov 28, 6:04am

Sat Nov 28, 5:04am

Sat Nov 28, 4:04am

Sat Nov 28, 3:05am

Sat Nov 28, 2:04am

Sat Nov 28, 1:04am

Sat Nov 28, 12:04am

Fri Nov 27, 11:05pm

Fri Nov 27, 10:04pm

Fri Nov 27, 9:04pm

Fri Nov 27, 7:04pm

Fri Nov 27, 6:04pm

Fri Nov 27, 5:04pm

Fri Nov 27, 4:05pm

Fri Nov 27, 3:05pm

Fri Nov 27, 2:05pm

Meta data:

ID: b9b151b5-7faa-4100-8f89-cee5dcb708a6
Link: https://api.weather.gov/products/b9b151b5-7faa-4100-8f89-cee5dcb708a6